[[{"header":{"parameterUnit":"m.s-1","parameterCategory":1,"la1":30.2992,"la2":30.254,"lo1":-89.0895,"lo2":-89.0443,"dy":0.0025,"dx":0.0025,"nx":19,"ny":19,"refTime":"2026-04-07T09:00:00:Z","depth":0,"parameterNumber":2,"parameterNumberName":"U-component_of_WINDS"},"data":[0,0,0,-7.8199,-7.8203,-7.8348,-7.8348,-7.8612,-7.8615,0,0,0,0,0,0,0,0,0,0,0,-7.8204,-7.8207,-7.8198,-7.8203,-7.8348,-7.8348,-7.8612,-7.8615,0,0,0,0,0,0,0,0,0,0,0,-7.8202,-7.8206,-7.8211,-7.8204,-7.8348,-7.8348,-7.8611,-7.8474,0,0,0,0,0,0,0,0,0,0,-7.832,-7.8371,-7.8205,-7.8211,-7.8205,-7.8348,-7.8348,-7.8466,-7.8482,-7.858,0,-7.868,0,-7.8653,-7.8638,-7.8639,0,0,0,-7.8168,-7.8358,-7.8353,-7.8211,-7.8207,-7.8348,-7.8273,-7.8474,-7.8493,-7.8603,-7.8683,-7.8691,-7.8657,-7.864,-7.8642,-7.9323,-7.9328,0,0,-7.816,-7.8256,-7.8341,-7.8368,-7.835,-7.8269,-7.8278,-7.8484,-7.8579,-7.8684,-7.8696,-7.8661,-7.8643,-7.8645,-7.9318,-7.9324,0,0,0,-7.8161,-7.8253,-7.824,-7.8359,-7.8379,-7.8274,-7.8284,-7.8569,-7.8557,-7.8698,-7.8664,-7.8645,-7.8649,-7.9313,-7.9321,-7.9652,0,0,0,-7.8154,-7.8252,-7.8239,-7.83,-7.8377,-7.8477,-7.8367,-7.8543,-7.8563,-7.8663,-7.8645,-7.8652,-7.9307,-7.9317,-7.9631,-7.9794,0,0,0,-7.8178,-7.8254,-7.8292,-7.8305,-7.837,-7.8471,-7.8469,-7.8545,-7.8545,-7.864,-7.8653,-7.9304,-7.9315,-7.9613,-7.9763,-7.9999,0,0,0,-7.8232,-7.8587,-7.8299,-7.8682,-7.837,-7.8675,-7.8467,-7.869,-7.8811,-7.8646,-7.9308,-7.932,-7.9607,-7.9744,-7.998,-8.0216,-8.0323,0,0,-7.8734,-7.8651,-7.8869,-7.8615,-7.8996,-7.8645,-7.9074,-7.9094,-7.9016,-7.9225,-7.924,-7.9638,-7.9761,-7.9995,-8.0891,-8.0977,0,0,0,-7.9061,-7.9219,-7.9298,-7.9416,-7.9439,-7.9471,-7.9415,-7.9422,-7.9594,-7.9143,-7.9785,-7.9855,-7.9988,-8.0096,-8.017,-8.0277,-7.9374,-7.9373,-7.9372,-7.9912,-7.9789,-8.014,-8.0036,-8.0154,-8.009,-8.0173,-8.0171,-8.0017,-8.017,-8.0232,-8.079,-8.092,-8.0974,-8.1088,-8.0346,-8.0347,-8.0349,-8.0349,-8.0635,-8.0838,-8.062,-8.0882,-8.0751,-8.097,-8.0922,-8.0805,-8.0989,-8.0734,-8.0846,-8.0578,-8.1072,-8.1165,-8.0373,-8.0369,-8.0366,-8.0364,-8.0362,-8.1179,-8.1254,-8.1254,-8.141,-8.1544,-8.1424,-8.1611,-8.1485,-8.1368,-8.1479,-8.1529,-8.1523,-8.1501,-8.1511,-8.1513,-8.1515,-8.1517,-8.1518,-8.1519,-8.1742,-8.1731,-8.1903,-8.1954,-8.2011,-8.2071,-8.2008,-8.2061,-8.2088,-8.1982,-8.1981,-8.1811,-8.1143,-8.0978,-8.1549,-8.1544,-8.154,-8.1537,-8.1535,-8.2521,-8.2323,-8.259,-8.2647,-8.2694,-8.2834,-8.2669,-8.2788,-8.2814,-8.2909,-8.2714,-8.2241,-8.2147,-8.2088,-8.1951,-8.2739,-8.2739,-8.2739,-8.2739,-8.2979,-8.2918,-8.3159,-8.3258,-8.3341,-8.3219,-8.3522,-8.3476,-8.3398,-8.3406,-8.3273,-8.308,-8.3025,-8.2964,-8.2886,-8.2755,-8.3731,-8.3732,-8.3733,-8.345,-8.339,-8.3673,-8.3592,-8.3618,-8.3644,-8.3925,-8.4048,-8.3918,-8.3771,-8.3409,-8.3367,-8.3053,-8.2957,-8.2803,-8.2685,-8.2443,0,0]},{"header":{"parameterUnit":"m.s-1","parameterCategory":1,"la1":30.2992,"la2":30.254,"lo1":-89.0895,"lo2":-89.0443,"dy":0.0025,"dx":0.0025,"nx":19,"ny":19,"refTime":"2026-04-07T09:00:00:Z","depth":0,"parameterNumber":3,"parameterNumberName":"V-component_of_WINDS"},"data":[0,0,0,-0.8034,-0.8036,-0.8138,-0.8139,-0.8245,-0.8246,0,0,0,0,0,0,0,0,0,0,0,-0.799,-0.799,-0.8034,-0.8036,-0.8138,-0.8139,-0.8245,-0.8246,0,0,0,0,0,0,0,0,0,0,0,-0.7989,-0.799,-0.799,-0.8036,-0.8138,-0.8139,-0.8245,-0.8176,0,0,0,0,0,0,0,0,0,0,-0.8081,-0.8026,-0.799,-0.799,-0.8037,-0.8138,-0.8139,-0.8173,-0.818,-0.8188,0,-0.8192,0,-0.822,-0.8251,-0.8251,0,0,0,-0.8047,-0.802,-0.806,-0.799,-0.8038,-0.8138,-0.8095,-0.8177,-0.8185,-0.8197,-0.8194,-0.8198,-0.8222,-0.8252,-0.8252,-0.8262,-0.8262,0,0,-0.8041,-0.8,-0.8055,-0.8065,-0.8049,-0.8092,-0.8098,-0.8183,-0.8176,-0.8194,-0.8201,-0.8224,-0.8252,-0.8253,-0.8263,-0.8262,0,0,0,-0.8018,-0.7996,-0.8035,-0.806,-0.808,-0.8095,-0.8102,-0.8172,-0.8188,-0.8203,-0.8225,-0.8253,-0.8254,-0.8263,-0.8262,-0.82,0,0,0,-0.8015,-0.7982,-0.8032,-0.8008,-0.8078,-0.8128,-0.8089,-0.8182,-0.8193,-0.8224,-0.8253,-0.8255,-0.8264,-0.8263,-0.8202,-0.8176,0,0,0,-0.7988,-0.7979,-0.7989,-0.8005,-0.8048,-0.8127,-0.8149,-0.8186,-0.8206,-0.8252,-0.8255,-0.8264,-0.8263,-0.8205,-0.8181,-0.8165,0,0,0,-0.7947,-0.7933,-0.7988,-0.7981,-0.8047,-0.8088,-0.8149,-0.8182,-0.8213,-0.8253,-0.8264,-0.8262,-0.8206,-0.8183,-0.8168,-0.8144,-0.8131,0,0,-0.7907,-0.7927,-0.7926,-0.7978,-0.7998,-0.8076,-0.8088,-0.8155,-0.8197,-0.8238,-0.8239,-0.8201,-0.8181,-0.8166,-0.8074,-0.8062,0,0,0,-0.7899,-0.7897,-0.7912,-0.794,-0.7991,-0.8032,-0.8102,-0.8127,-0.8164,-0.821,-0.8194,-0.8183,-0.8176,-0.8166,-0.8157,-0.8153,-0.8257,-0.8257,-0.8257,-0.7782,-0.7836,-0.7838,-0.7903,-0.7929,-0.8001,-0.8026,-0.8072,-0.812,-0.8115,-0.8126,-0.8064,-0.8051,-0.8045,-0.8039,-0.812,-0.812,-0.8119,-0.8119,-0.7726,-0.7732,-0.7794,-0.7817,-0.7874,-0.7894,-0.7962,-0.7994,-0.802,-0.806,-0.8056,-0.8093,-0.8031,-0.8029,-0.8115,-0.8116,-0.8116,-0.8117,-0.8117,-0.7654,-0.7666,-0.7697,-0.7741,-0.7769,-0.7837,-0.7858,-0.7909,-0.7958,-0.7954,-0.7971,-0.7972,-0.7978,-0.7959,-0.7959,-0.7959,-0.7958,-0.7958,-0.7958,-0.7567,-0.7603,-0.7615,-0.7667,-0.7691,-0.7728,-0.7799,-0.7824,-0.7864,-0.79,-0.79,-0.7946,-0.8016,-0.8031,-0.7955,-0.7956,-0.7956,-0.7956,-0.7956,-0.7487,-0.7513,-0.7531,-0.7554,-0.7619,-0.7642,-0.7707,-0.7752,-0.778,-0.7789,-0.7836,-0.788,-0.7904,-0.7912,-0.7924,-0.7826,-0.7826,-0.7826,-0.7826,-0.7424,-0.7442,-0.7471,-0.7505,-0.7544,-0.7604,-0.7621,-0.7676,-0.7736,-0.7756,-0.7779,-0.7801,-0.7806,-0.7827,-0.7837,-0.7849,-0.7734,-0.7734,-0.7734,-0.7377,-0.74,-0.7405,-0.7465,-0.7518,-0.7563,-0.758,-0.7615,-0.769,-0.7731,-0.7773,-0.7777,-0.7813,-0.7822,-0.7862,-0.7876,-0.7901,0,0]}]]